Time,TemperatureF,DewpointF,PressureIn,WindDirection,WindDirectionDegrees,WindSpeedMPH,WindSpeedGustMPH,Humidity,HourlyPrecipIn,Conditions,Clouds,dailyrainin,SolarRadiationWatts/m^2,SoftwareType,DateUTC
2013-01-16 00:00:00,30.8,24.8,30.05,NE,43,4.0,6.0,78,0.00,,---,0.00,0.00,VWS V14.01,2013-01-16 05:00:00,
2013-01-16 00:01:00,30.8,24.8,30.05,NE,42,0.0,4.0,78,0.00,,---,0.00,0.00,VWS V14.01,2013-01-16 05:01:00,
2013-01-16 00:06:00,30.8,24.8,30.05,NE,36,3.0,5.0,78,0.00,,---,0.00,0.00,VWS V14.01,2013-01-16 05:06:00,
2013-01-16 00:11:00,30.8,24.8,30.04,NE,38,0.0,6.0,78,0.00,,---,0.00,0.00,VWS V14.01,2013-01-16 05:11:00,
2013-01-16 00:16:00,30.8,24.8,30.04,ENE,71,3.0,6.0,78,0.00,,---,0.00,0.00,VWS V14.01,2013-01-16 05:16:00,
2013-01-16 00:21:00,30.8,24.8,30.03,NE,44,1.0,6.0,78,0.00,,---,0.00,0.00,VWS V14.01,2013-01-16 05:21:00,
2013-01-16 00:26:00,30.8,24.8,30.04,NE,42,2.0,7.0,78,0.00,,---,0.00,0.00,VWS V14.01,2013-01-16 05:26:00,
2013-01-16 00:30:00,30.6,25.2,30.00,East,82,2.0,5.0,80,0.00,,---,0.00,0.00,VWS V14.01,2013-01-16 05:30:00,
2013-01-16 00:31:00,30.8,24.8,30.04,NE,42,2.0,4.0,78,0.00,,---,0.00,0.00,VWS V14.01,2013-01-16 05:31:00,
2013-01-16 00:36:00,30.8,24.8,30.04,NE,42,3.0,4.0,78,0.00,,---,0.00,0.00,VWS V14.01,2013-01-16 05:36:00,
2013-01-16 00:41:00,30.8,24.8,30.03,NE,40,3.0,5.0,78,0.00,,---,0.00,0.00,VWS V14.01,2013-01-16 05:41:00,
2013-01-16 00:46:00,30.8,24.8,30.03,NE,46,0.0,5.0,78,0.00,,---,0.00,0.00,VWS V14.01,2013-01-16 05:46:00,
2013-01-16 00:51:00,30.9,24.9,30.02,ENE,75,0.0,5.0,78,0.00,,---,0.00,0.00,VWS V14.01,2013-01-16 05:51:00,
2013-01-16 00:56:00,30.8,24.8,30.02,NE,47,6.0,9.0,78,0.00,,---,0.00,0.00,VWS V14.01,2013-01-16 05:56:00,
2013-01-16 01:00:00,30.0,25.8,30.00,ENE,74,2.0,5.0,84,0.00,,---,0.00,0.00,VWS V14.01,2013-01-16 06:00:00,
2013-01-16 01:01:00,30.8,24.8,30.02,ENE,68,1.0,3.0,78,0.00,,---,0.00,0.00,VWS V14.01,2013-01-16 06:01:00,
2013-01-16 01:06:00,30.8,24.8,30.02,NE,52,5.0,5.0,78,0.00,,---,0.00,0.00,VWS V14.01,2013-01-16 06:06:00,
2013-01-16 01:11:00,30.8,25.1,30.02,NE,53,0.0,5.0,79,0.00,,---,0.00,0.00,VWS V14.01,2013-01-16 06:11:00,
2013-01-16 01:16:00,30.8,25.1,30.02,ENE,65,0.0,5.0,79,0.00,,---,0.00,0.00,VWS V14.01,2013-01-16 06:16:00,
2013-01-16 01:21:00,30.7,25.0,30.01,NE,39,0.0,5.0,79,0.00,,---,0.00,0.00,VWS V14.01,2013-01-16 06:21:00,
2013-01-16 01:26:00,30.7,25.0,30.01,ENE,77,0.0,5.0,79,0.00,,---,0.00,0.00,VWS V14.01,2013-01-16 06:26:00,
2013-01-16 01:30:00,29.9,26.0,29.99,ENE,76,0.0,5.0,85,0.00,,---,0.00,0.00,VWS V14.01,2013-01-16 06:30:00,
2013-01-16 01:31:00,30.6,25.2,30.00,East,85,3.0,4.0,80,0.00,,---,0.00,0.00,VWS V14.01,2013-01-16 06:31:00,
2013-01-16 01:36:00,30.5,25.4,30.00,ENE,77,2.0,4.0,81,0.00,,---,0.00,0.00,VWS V14.01,2013-01-16 06:36:00,
2013-01-16 01:41:00,30.4,25.6,30.00,East,84,0.0,5.0,82,0.00,,---,0.00,0.00,VWS V14.01,2013-01-16 06:41:00,
2013-01-16 01:46:00,30.2,25.7,30.00,East,87,1.0,5.0,83,0.00,,---,0.00,0.00,VWS V14.01,2013-01-16 06:46:00,
2013-01-16 01:51:00,30.1,25.6,30.01,ENE,74,3.0,5.0,83,0.00,,---,0.00,0.00,VWS V14.01,2013-01-16 06:51:00,
2013-01-16 01:56:00,30.0,25.8,30.00,ENE,74,0.0,5.0,84,0.00,,---,0.00,0.00,VWS V14.01,2013-01-16 06:56:00,
2013-01-16 02:00:00,30.1,26.1,30.02,NE,53,0.0,3.0,85,0.00,,---,0.00,0.00,VWS V14.01,2013-01-16 07:00:00,
2013-01-16 02:01:00,30.0,25.8,29.99,ENE,74,1.0,3.0,84,0.00,,---,0.00,0.00,VWS V14.01,2013-01-16 07:01:00,
2013-01-16 02:06:00,29.9,26.0,29.98,ENE,74,0.0,3.0,85,0.00,,---,0.00,0.00,VWS V14.01,2013-01-16 07:06:00,
2013-01-16 02:11:00,29.9,26.0,29.98,East,80,3.0,4.0,85,0.00,,---,0.00,0.00,VWS V14.01,2013-01-16 07:11:00,
2013-01-16 02:17:00,29.9,26.0,29.98,ENE,76,0.0,5.0,85,0.00,,---,0.00,0.00,VWS V14.01,2013-01-16 07:17:00,
2013-01-16 02:22:00,29.9,26.0,29.99,ENE,76,1.0,5.0,85,0.00,,---,0.00,0.00,VWS V14.01,2013-01-16 07:22:00,
2013-01-16 02:27:00,29.9,26.0,30.00,ENE,76,1.0,5.0,85,0.00,,---,0.00,0.00,VWS V14.01,2013-01-16 07:27:00,
2013-01-16 02:30:00,30.1,26.1,30.00,ENE,59,1.0,3.0,85,0.00,,---,0.00,0.00,VWS V14.01,2013-01-16 07:30:00,
2013-01-16 02:32:00,29.9,26.0,30.00,ENE,76,0.0,1.0,85,0.00,,---,0.00,0.00,VWS V14.01,2013-01-16 07:32:00,
2013-01-16 02:37:00,30.0,26.0,30.01,ENE,76,0.0,1.0,85,0.00,,---,0.00,0.00,VWS V14.01,2013-01-16 07:37:00,
2013-01-16 02:42:00,30.0,26.0,30.01,ENE,60,2.0,3.0,85,0.00,,---,0.00,0.00,VWS V14.01,2013-01-16 07:42:00,
2013-01-16 02:47:00,30.1,26.4,30.01,NE,55,0.0,3.0,86,0.00,,---,0.00,0.00,VWS V14.01,2013-01-16 07:47:00,
2013-01-16 02:52:00,30.1,26.4,30.01,NE,53,0.0,3.0,86,0.00,,---,0.00,0.00,VWS V14.01,2013-01-16 07:52:00,
2013-01-16 02:57:00,30.1,26.1,30.00,NE,53,0.0,3.0,85,0.00,,---,0.00,0.00,VWS V14.01,2013-01-16 07:57:00,
2013-01-16 03:00:00,30.2,26.2,29.99,North,355,0.0,4.0,85,0.00,,---,0.00,0.00,VWS V14.01,2013-01-16 08:00:00,
2013-01-16 03:02:00,30.1,26.4,30.01,NE,53,0.0,0.0,86,0.00,,---,0.00,0.00,VWS V14.01,2013-01-16 08:02:00,
2013-01-16 03:07:00,30.2,26.5,30.02,NNE,22,3.0,3.0,86,0.00,,---,0.00,0.00,VWS V14.01,2013-01-16 08:07:00,
2013-01-16 03:12:00,30.2,26.5,30.00,NNE,22,0.0,3.0,86,0.00,,---,0.00,0.00,VWS V14.01,2013-01-16 08:12:00,
2013-01-16 03:17:00,30.2,28.2,29.99,ENE,67,3.0,3.0,92,0.00,,---,0.00,0.00,VWS V14.01,2013-01-16 08:17:00,
2013-01-16 03:22:00,30.2,26.5,29.99,ENE,67,0.0,3.0,86,0.00,,---,0.00,0.00,VWS V14.01,2013-01-16 08:22:00,
2013-01-16 03:27:00,30.2,26.2,29.99,ENE,67,1.0,3.0,85,0.00,,---,0.00,0.00,VWS V14.01,2013-01-16 08:27:00,
2013-01-16 03:30:00,30.3,26.3,29.97,North,355,0.0,2.0,85,0.00,,---,0.00,0.00,VWS V14.01,2013-01-16 08:30:00,
2013-01-16 03:32:00,30.1,26.4,30.00,ENE,59,0.0,2.0,86,0.00,,---,0.00,0.00,VWS V14.01,2013-01-16 08:32:00,
2013-01-16 03:37:00,30.2,26.5,29.99,ENE,59,2.0,3.0,86,0.00,,---,0.00,0.00,VWS V14.01,2013-01-16 08:37:00,
2013-01-16 03:42:00,30.2,26.2,30.00,NE,56,1.0,4.0,85,0.00,,---,0.00,0.00,VWS V14.01,2013-01-16 08:42:00,
2013-01-16 03:47:00,30.2,26.5,30.01,North,355,2.0,4.0,86,0.00,,---,0.00,0.00,VWS V14.01,2013-01-16 08:47:00,
2013-01-16 03:52:00,30.2,26.2,30.00,North,355,2.0,4.0,85,0.00,,---,0.00,0.00,VWS V14.01,2013-01-16 08:52:00,
2013-01-16 03:57:00,30.2,26.2,29.99,North,355,0.0,4.0,85,0.00,,---,0.00,0.00,VWS V14.01,2013-01-16 08:57:00,
2013-01-16 04:00:00,30.3,26.1,29.93,NE,34,0.0,5.0,84,0.00,,---,0.00,0.00,VWS V14.01,2013-01-16 09:00:00,
2013-01-16 04:02:00,30.2,26.2,29.99,North,355,0.0,0.0,85,0.00,,---,0.00,0.00,VWS V14.01,2013-01-16 09:02:00,
2013-01-16 04:07:00,30.3,26.3,29.98,North,355,0.0,1.0,85,0.00,,---,0.00,0.00,VWS V14.01,2013-01-16 09:07:00,
2013-01-16 04:12:00,30.3,26.3,29.98,North,355,0.0,1.0,85,0.00,,---,0.00,0.00,VWS V14.01,2013-01-16 09:12:00,
2013-01-16 04:17:00,30.3,26.3,29.97,North,355,0.0,1.0,85,0.00,,---,0.00,0.00,VWS V14.01,2013-01-16 09:17:00,
2013-01-16 04:22:00,30.3,26.3,29.96,North,355,1.0,2.0,85,0.00,,---,0.00,0.00,VWS V14.01,2013-01-16 09:22:00,
2013-01-16 04:27:00,30.3,26.3,29.97,North,355,0.0,2.0,85,0.00,,---,0.00,0.00,VWS V14.01,2013-01-16 09:27:00,
2013-01-16 04:30:00,30.4,25.9,29.93,NNE,31,0.0,4.0,83,0.00,,---,0.00,0.00,VWS V14.01,2013-01-16 09:30:00,
2013-01-16 04:32:00,30.3,26.3,29.96,North,355,0.0,0.0,85,0.00,,---,0.00,0.00,VWS V14.01,2013-01-16 09:32:00,
2013-01-16 04:37:00,30.3,26.3,29.95,North,355,0.0,1.0,85,0.00,,---,0.00,0.00,VWS V14.01,2013-01-16 09:37:00,
2013-01-16 04:42:00,30.3,26.3,29.95,North,355,0.0,1.0,85,0.00,,---,0.00,0.00,VWS V14.01,2013-01-16 09:42:00,
2013-01-16 04:47:00,30.3,26.1,29.94,North,355,1.0,1.0,84,0.00,,---,0.00,0.00,VWS V14.01,2013-01-16 09:47:00,
2013-01-16 04:52:00,30.3,26.1,29.93,North,355,0.0,3.0,84,0.00,,---,0.00,0.00,VWS V14.01,2013-01-16 09:52:00,
2013-01-16 04:57:00,30.3,26.1,29.92,North,355,1.0,3.0,84,0.00,,---,0.00,0.00,VWS V14.01,2013-01-16 09:57:00,
2013-01-16 05:00:00,30.6,26.1,29.94,NNW,335,0.0,4.0,83,0.00,,---,0.00,0.00,VWS V14.01,2013-01-16 10:00:00,
2013-01-16 05:02:00,30.3,26.1,29.95,NE,34,0.0,2.0,84,0.00,,---,0.00,0.00,VWS V14.01,2013-01-16 10:02:00,
2013-01-16 05:07:00,30.2,26.0,29.94,NNE,31,0.0,4.0,84,0.00,,---,0.00,0.00,VWS V14.01,2013-01-16 10:07:00,
2013-01-16 05:12:00,30.3,26.1,29.94,NNE,31,0.0,4.0,84,0.00,,---,0.00,0.00,VWS V14.01,2013-01-16 10:12:00,
2013-01-16 05:17:00,30.3,25.8,29.95,NNE,31,0.0,4.0,83,0.00,,---,0.00,0.00,VWS V14.01,2013-01-16 10:17:00,
2013-01-16 05:22:00,30.3,26.1,29.96,NNE,31,0.0,4.0,84,0.00,,---,0.00,0.00,VWS V14.01,2013-01-16 10:22:00,
2013-01-16 05:27:00,30.3,25.8,29.95,NNE,31,0.0,4.0,83,0.00,,---,0.00,0.00,VWS V14.01,2013-01-16 10:27:00,
2013-01-16 05:30:00,30.7,25.9,29.93,NNW,335,2.0,4.0,82,0.00,,---,0.00,0.00,VWS V14.01,2013-01-16 10:30:00,
2013-01-16 05:32:00,30.4,25.9,29.94,NNE,31,0.0,0.0,83,0.00,,---,0.00,0.00,VWS V14.01,2013-01-16 10:32:00,
2013-01-16 05:37:00,30.4,25.9,29.93,NNE,31,0.0,2.0,83,0.00,,---,0.00,0.00,VWS V14.01,2013-01-16 10:37:00,
2013-01-16 05:42:00,30.4,25.9,29.95,NNW,333,2.0,4.0,83,0.00,,---,0.00,0.00,VWS V14.01,2013-01-16 10:42:00,
2013-01-16 05:48:00,30.5,26.0,29.94,NNW,335,0.0,4.0,83,0.00,,---,0.00,0.00,VWS V14.01,2013-01-16 10:48:00,
2013-01-16 05:53:00,30.5,26.0,29.94,NNW,335,2.0,4.0,83,0.00,,---,0.00,0.00,VWS V14.01,2013-01-16 10:53:00,
2013-01-16 05:58:00,30.5,26.0,29.94,NNW,335,0.0,4.0,83,0.00,,---,0.00,0.00,VWS V14.01,2013-01-16 10:58:00,
2013-01-16 06:00:00,30.7,25.9,29.93,NNW,335,0.0,4.0,82,0.00,,---,0.00,0.00,VWS V14.01,2013-01-16 11:00:00,
2013-01-16 06:03:00,30.6,26.1,29.94,NNW,335,0.0,2.0,83,0.00,,---,0.00,0.00,VWS V14.01,2013-01-16 11:03:00,
2013-01-16 06:08:00,30.6,26.1,29.94,NNW,335,1.0,2.0,83,0.00,,---,0.00,0.00,VWS V14.01,2013-01-16 11:08:00,
2013-01-16 06:13:00,30.6,25.8,29.94,NNW,335,0.0,2.0,82,0.00,,---,0.00,0.00,VWS V14.01,2013-01-16 11:13:00,
2013-01-16 06:18:00,30.6,25.8,29.93,NNW,335,0.0,2.0,82,0.00,,---,0.00,0.00,VWS V14.01,2013-01-16 11:18:00,
2013-01-16 06:23:00,30.7,25.9,29.91,NNW,335,0.0,2.0,82,0.00,,---,0.00,0.00,VWS V14.01,2013-01-16 11:23:00,
2013-01-16 06:28:00,30.7,25.9,29.92,NNW,335,3.0,4.0,82,0.00,,---,0.00,0.00,VWS V14.01,2013-01-16 11:28:00,
2013-01-16 06:30:00,30.8,25.7,29.94,NNW,335,0.0,1.0,81,0.00,,---,0.00,0.00,VWS V14.01,2013-01-16 11:30:00,
2013-01-16 06:33:00,30.7,25.9,29.93,NNW,335,1.0,3.0,82,0.00,,---,0.00,0.00,VWS V14.01,2013-01-16 11:33:00,
2013-01-16 06:38:00,30.7,25.9,29.93,NNW,335,1.0,3.0,82,0.00,,---,0.00,0.00,VWS V14.01,2013-01-16 11:38:00,
2013-01-16 06:43:00,30.7,25.9,29.93,NNW,335,0.0,4.0,82,0.00,,---,0.00,0.00,VWS V14.01,2013-01-16 11:43:00,
2013-01-16 06:48:00,30.7,25.9,29.93,NNW,335,0.0,4.0,82,0.00,,---,0.00,0.00,VWS V14.01,2013-01-16 11:48:00,
2013-01-16 06:53:00,30.7,25.9,29.93,NNW,335,0.0,4.0,82,0.00,,---,0.00,0.00,VWS V14.01,2013-01-16 11:53:00,
2013-01-16 06:58:00,30.7,25.9,29.93,NNW,335,0.0,4.0,82,0.00,,---,0.00,0.00,VWS V14.01,2013-01-16 11:58:00,
2013-01-16 07:00:00,31.0,26.2,29.94,NNW,335,0.0,1.0,82,0.00,,---,0.00,0.00,VWS V14.01,2013-01-16 12:00:00,
2013-01-16 07:03:00,30.7,25.6,29.93,NNW,335,0.0,0.0,81,0.00,,---,0.00,0.00,VWS V14.01,2013-01-16 12:03:00,
2013-01-16 07:08:00,30.7,25.6,29.93,NNW,335,0.0,0.0,81,0.00,,---,0.00,0.00,VWS V14.01,2013-01-16 12:08:00,
2013-01-16 07:13:00,30.8,26.0,29.92,NNW,335,0.0,0.0,82,0.00,,---,0.00,0.00,VWS V14.01,2013-01-16 12:13:00,
2013-01-16 07:18:00,30.8,25.7,29.94,NNW,335,0.0,1.0,81,0.00,,---,0.00,0.00,VWS V14.01,2013-01-16 12:18:00,
2013-01-16 07:23:00,30.8,26.0,29.95,NNW,335,1.0,1.0,82,0.00,,---,0.00,0.00,VWS V14.01,2013-01-16 12:23:00,
2013-01-16 07:28:00,30.8,26.0,29.94,NNW,335,0.0,1.0,82,0.00,,---,0.00,0.00,VWS V14.01,2013-01-16 12:28:00,
2013-01-16 07:30:00,31.0,25.9,29.93,NNW,335,0.0,0.0,81,0.00,,---,0.00,9.00,VWS V14.01,2013-01-16 12:30:00,
2013-01-16 07:33:00,30.9,25.8,29.93,NNW,335,0.0,0.0,81,0.00,,---,0.00,0.00,VWS V14.01,2013-01-16 12:33:00,
2013-01-16 07:38:00,30.9,25.8,29.93,NNW,335,0.0,0.0,81,0.00,,---,0.00,0.00,VWS V14.01,2013-01-16 12:38:00,
2013-01-16 07:43:00,30.9,26.1,29.93,NNW,335,0.0,0.0,82,0.00,,---,0.00,0.00,VWS V14.01,2013-01-16 12:43:00,
2013-01-16 07:48:00,30.9,26.1,29.93,NNW,335,0.0,0.0,82,0.00,,---,0.00,0.00,VWS V14.01,2013-01-16 12:48:00,
2013-01-16 07:53:00,30.9,26.1,29.93,NNW,335,0.0,0.0,82,0.00,,---,0.00,0.00,VWS V14.01,2013-01-16 12:53:00,
2013-01-16 07:58:00,31.0,26.2,29.93,NNW,335,0.0,0.0,82,0.00,,---,0.00,0.00,VWS V14.01,2013-01-16 12:58:00,
2013-01-16 08:00:00,31.1,26.0,29.94,NNW,335,0.0,3.0,81,0.00,,---,0.00,19.00,VWS V14.01,2013-01-16 13:00:00,
2013-01-16 08:03:00,31.0,26.2,29.93,NNW,335,0.0,0.0,82,0.00,,---,0.00,0.00,VWS V14.01,2013-01-16 13:03:00,
2013-01-16 08:08:00,31.0,25.9,29.93,NNW,335,0.0,0.0,81,0.00,,---,0.00,0.00,VWS V14.01,2013-01-16 13:08:00,
2013-01-16 08:13:00,31.0,25.9,29.94,NNW,335,0.0,0.0,81,0.00,,---,0.00,0.00,VWS V14.01,2013-01-16 13:13:00,
2013-01-16 08:18:00,31.0,25.9,29.94,NNW,335,0.0,0.0,81,0.00,,---,0.00,5.00,VWS V14.01,2013-01-16 13:18:00,
2013-01-16 08:23:00,31.0,25.9,29.93,NNW,335,0.0,0.0,81,0.00,,---,0.00,5.00,VWS V14.01,2013-01-16 13:23:00,
2013-01-16 08:28:00,31.0,25.9,29.93,NNW,335,0.0,0.0,81,0.00,,---,0.00,9.00,VWS V14.01,2013-01-16 13:28:00,
2013-01-16 08:30:00,31.3,26.5,29.95,NNW,335,0.0,2.0,82,0.00,,---,0.00,26.00,VWS V14.01,2013-01-16 13:30:00,
2013-01-16 08:33:00,31.0,25.9,29.94,NNW,335,0.0,0.0,81,0.00,,---,0.00,9.00,VWS V14.01,2013-01-16 13:33:00,
2013-01-16 08:38:00,31.0,25.9,29.94,NNW,335,0.0,0.0,81,0.00,,---,0.00,7.00,VWS V14.01,2013-01-16 13:38:00,
2013-01-16 08:43:00,31.1,26.0,29.95,NNW,335,2.0,2.0,81,0.00,,---,0.00,9.00,VWS V14.01,2013-01-16 13:43:00,
2013-01-16 08:48:00,31.1,26.0,29.95,NNW,335,1.0,2.0,81,0.00,,---,0.00,9.00,VWS V14.01,2013-01-16 13:48:00,
2013-01-16 08:53:00,31.1,26.0,29.95,NNW,335,0.0,3.0,81,0.00,,---,0.00,11.00,VWS V14.01,2013-01-16 13:53:00,
2013-01-16 08:58:00,31.1,26.0,29.94,NNW,335,0.0,3.0,81,0.00,,---,0.00,16.00,VWS V14.01,2013-01-16 13:58:00,
2013-01-16 09:00:00,31.5,26.6,29.95,WSW,238,3.0,5.0,82,0.00,,---,0.00,37.00,VWS V14.01,2013-01-16 14:00:00,
2013-01-16 09:03:00,31.1,26.0,29.94,NNW,335,0.0,1.0,81,0.00,,---,0.00,19.00,VWS V14.01,2013-01-16 14:03:00,
2013-01-16 09:08:00,31.1,26.0,29.95,NNW,335,0.0,2.0,81,0.00,,---,0.00,19.00,VWS V14.01,2013-01-16 14:08:00,
2013-01-16 09:13:00,31.2,26.1,29.94,NNW,335,1.0,2.0,81,0.00,,---,0.00,23.00,VWS V14.01,2013-01-16 14:13:00,
2013-01-16 09:18:00,31.2,26.1,29.94,NNW,335,0.0,2.0,81,0.00,,---,0.00,23.00,VWS V14.01,2013-01-16 14:18:00,
2013-01-16 09:23:00,31.2,26.1,29.94,NNW,335,0.0,2.0,81,0.00,,---,0.00,23.00,VWS V14.01,2013-01-16 14:23:00,
2013-01-16 09:28:00,31.3,26.5,29.95,NNW,335,1.0,2.0,82,0.00,,---,0.00,25.00,VWS V14.01,2013-01-16 14:28:00,
2013-01-16 09:30:00,31.8,27.2,29.96,SW,223,2.0,9.0,83,0.00,,---,0.00,69.00,VWS V14.01,2013-01-16 14:30:00,
2013-01-16 09:33:00,31.3,26.5,29.95,NNW,335,0.0,2.0,82,0.00,,---,0.00,26.00,VWS V14.01,2013-01-16 14:33:00,
2013-01-16 09:38:00,31.4,26.5,29.95,NNW,335,2.0,3.0,82,0.00,,---,0.00,32.00,VWS V14.01,2013-01-16 14:38:00,
2013-01-16 09:43:00,31.3,26.2,29.95,NNW,333,1.0,3.0,81,0.00,,---,0.00,39.00,VWS V14.01,2013-01-16 14:43:00,
2013-01-16 09:48:00,31.4,26.5,29.95,NNW,333,1.0,3.0,82,0.00,,---,0.00,39.00,VWS V14.01,2013-01-16 14:48:00,
2013-01-16 09:53:00,31.5,26.6,29.96,WNW,303,2.0,4.0,82,0.00,,---,0.00,32.00,VWS V14.01,2013-01-16 14:53:00,
2013-01-16 09:59:00,31.5,26.6,29.96,WSW,238,3.0,5.0,82,0.00,,---,0.00,35.00,VWS V14.01,2013-01-16 14:59:00,
2013-01-16 10:00:00,32.1,27.5,29.96,WSW,243,3.0,8.0,83,0.00,,---,0.00,76.00,VWS V14.01,2013-01-16 15:00:00,
2013-01-16 10:04:00,31.5,26.6,29.96,WSW,238,4.0,5.0,82,0.00,,---,0.00,40.00,VWS V14.01,2013-01-16 15:04:00,
2013-01-16 10:09:00,31.5,26.6,29.95,SW,229,3.0,5.0,82,0.00,,---,0.00,56.00,VWS V14.01,2013-01-16 15:09:00,
2013-01-16 10:14:00,31.6,26.8,29.96,SW,232,3.0,6.0,82,0.00,,---,0.00,51.00,VWS V14.01,2013-01-16 15:14:00,
2013-01-16 10:19:00,31.6,26.8,29.95,WSW,238,3.0,6.0,82,0.00,,---,0.00,54.00,VWS V14.01,2013-01-16 15:19:00,
2013-01-16 10:24:00,31.7,27.1,29.96,SW,221,6.0,9.0,83,0.00,,---,0.00,62.00,VWS V14.01,2013-01-16 15:24:00,
2013-01-16 10:29:00,31.8,27.2,29.96,SW,223,2.0,9.0,83,0.00,,---,0.00,67.00,VWS V14.01,2013-01-16 15:29:00,
2013-01-16 10:30:00,32.3,27.7,29.94,SW,236,4.0,10.0,83,0.00,,---,0.00,70.00,VWS V14.01,2013-01-16 15:30:00,
2013-01-16 10:34:00,31.9,27.3,29.96,SW,233,4.0,6.0,83,0.00,,---,0.00,74.00,VWS V14.01,2013-01-16 15:34:00,
2013-01-16 10:39:00,31.9,27.3,29.97,SW,234,7.0,7.0,83,0.00,,---,0.00,84.00,VWS V14.01,2013-01-16 15:39:00,
2013-01-16 10:44:00,31.9,27.3,29.96,SW,232,5.0,7.0,83,0.00,,---,0.00,76.00,VWS V14.01,2013-01-16 15:44:00,
2013-01-16 10:49:00,31.9,27.3,29.96,WSW,240,3.0,7.0,83,0.00,,---,0.00,76.00,VWS V14.01,2013-01-16 15:49:00,
2013-01-16 10:54:00,32.0,27.4,29.97,WSW,245,5.0,7.0,83,0.00,,---,0.00,77.00,VWS V14.01,2013-01-16 15:54:00,
2013-01-16 10:59:00,32.1,27.5,29.96,SW,231,6.0,8.0,83,0.00,,---,0.00,76.00,VWS V14.01,2013-01-16 15:59:00,
2013-01-16 11:00:00,32.8,28.2,29.93,WSW,251,9.0,12.0,83,0.00,,---,0.00,105.00,VWS V14.01,2013-01-16 16:00:00,
2013-01-16 11:04:00,32.1,27.5,29.96,WSW,237,3.0,8.0,83,0.00,,---,0.00,76.00,VWS V14.01,2013-01-16 16:04:00,
2013-01-16 11:09:00,32.2,27.9,29.95,SW,219,2.0,8.0,84,0.00,,---,0.00,77.00,VWS V14.01,2013-01-16 16:09:00,
2013-01-16 11:14:00,32.3,28.0,29.95,SW,236,6.0,8.0,84,0.00,,---,0.00,77.00,VWS V14.01,2013-01-16 16:14:00,
2013-01-16 11:19:00,32.3,27.7,29.95,SSW,207,8.0,9.0,83,0.00,,---,0.00,69.00,VWS V14.01,2013-01-16 16:19:00,
2013-01-16 11:24:00,32.3,27.7,29.95,SW,234,2.0,9.0,83,0.00,,---,0.00,67.00,VWS V14.01,2013-01-16 16:24:00,
2013-01-16 11:29:00,32.3,27.7,29.94,WSW,246,2.0,9.0,83,0.00,,---,0.00,70.00,VWS V14.01,2013-01-16 16:29:00,
2013-01-16 11:30:00,33.3,28.4,29.92,West,271,6.0,13.0,82,0.00,,---,0.00,149.00,VWS V14.01,2013-01-16 16:30:00,
2013-01-16 11:34:00,32.3,28.0,29.94,SW,236,3.0,5.0,84,0.00,,---,0.00,69.00,VWS V14.01,2013-01-16 16:34:00,
2013-01-16 11:39:00,32.4,28.1,29.94,WSW,245,6.0,9.0,84,0.00,,---,0.00,76.00,VWS V14.01,2013-01-16 16:39:00,
2013-01-16 11:44:00,32.5,28.2,29.93,SW,224,6.0,9.0,84,0.00,,---,0.00,90.00,VWS V14.01,2013-01-16 16:44:00,
2013-01-16 11:49:00,32.5,28.2,29.94,WSW,245,4.0,9.0,84,0.00,,---,0.00,90.00,VWS V14.01,2013-01-16 16:49:00,
2013-01-16 11:54:00,32.6,28.0,29.93,WSW,250,6.0,10.0,83,0.00,,---,0.00,104.00,VWS V14.01,2013-01-16 16:54:00,
2013-01-16 11:59:00,32.8,28.2,29.93,WSW,258,6.0,12.0,83,0.00,,---,0.00,104.00,VWS V14.01,2013-01-16 16:59:00,
2013-01-16 12:00:00,33.5,28.0,29.91,SW,235,4.0,12.0,80,0.00,,---,0.00,116.00,VWS V14.01,2013-01-16 17:00:00,
2013-01-16 12:04:00,32.9,28.3,29.93,WSW,242,3.0,9.0,83,0.00,,---,0.00,88.00,VWS V14.01,2013-01-16 17:04:00,
2013-01-16 12:09:00,33.0,28.4,29.93,West,267,11.0,11.0,83,0.00,,---,0.00,84.00,VWS V14.01,2013-01-16 17:09:00,
2013-01-16 12:14:00,33.0,28.1,29.93,West,266,6.0,13.0,82,0.00,,---,0.00,95.00,VWS V14.01,2013-01-16 17:14:00,
2013-01-16 12:19:00,33.0,28.1,29.93,WSW,244,7.0,13.0,82,0.00,,---,0.00,114.00,VWS V14.01,2013-01-16 17:19:00,
2013-01-16 12:24:00,33.1,28.2,29.93,West,262,7.0,13.0,82,0.00,,---,0.00,137.00,VWS V14.01,2013-01-16 17:24:00,
2013-01-16 12:29:00,33.2,28.3,29.92,West,259,3.0,13.0,82,0.00,,---,0.00,158.00,VWS V14.01,2013-01-16 17:29:00,
2013-01-16 12:30:00,33.8,28.6,29.89,WSW,253,9.0,10.0,81,0.00,,---,0.00,163.00,VWS V14.01,2013-01-16 17:30:00,
2013-01-16 12:34:00,33.4,28.5,29.91,West,272,5.0,8.0,82,0.00,,---,0.00,137.00,VWS V14.01,2013-01-16 17:34:00,
2013-01-16 12:39:00,33.4,28.2,29.92,WSW,256,8.0,12.0,81,0.00,,---,0.00,135.00,VWS V14.01,2013-01-16 17:39:00,
2013-01-16 12:44:00,33.4,27.9,29.92,WSW,254,5.0,12.0,80,0.00,,---,0.00,113.00,VWS V14.01,2013-01-16 17:44:00,
2013-01-16 12:49:00,33.5,28.3,29.91,WSW,257,7.0,12.0,81,0.00,,---,0.00,125.00,VWS V14.01,2013-01-16 17:49:00,
2013-01-16 12:54:00,33.5,28.3,29.91,WSW,255,8.0,12.0,81,0.00,,---,0.00,123.00,VWS V14.01,2013-01-16 17:54:00,
2013-01-16 12:59:00,33.4,27.9,29.91,SW,236,7.0,12.0,80,0.00,,---,0.00,116.00,VWS V14.01,2013-01-16 17:59:00,
2013-01-16 13:00:00,34.1,28.9,29.89,SW,234,4.0,11.0,81,0.00,,---,0.00,185.00,VWS V14.01,2013-01-16 18:00:00,
2013-01-16 13:04:00,33.5,28.3,29.91,SW,236,5.0,10.0,81,0.00,,---,0.00,105.00,VWS V14.01,2013-01-16 18:04:00,
2013-01-16 13:09:00,33.5,28.0,29.91,WSW,242,5.0,10.0,80,0.00,,---,0.00,123.00,VWS V14.01,2013-01-16 18:09:00,
2013-01-16 13:14:00,33.6,28.4,29.91,WSW,238,6.0,10.0,81,0.00,,---,0.00,137.00,VWS V14.01,2013-01-16 18:14:00,
2013-01-16 13:19:00,33.6,28.1,29.90,SW,234,6.0,10.0,80,0.00,,---,0.00,171.00,VWS V14.01,2013-01-16 18:19:00,
2013-01-16 13:24:00,33.7,28.2,29.90,WSW,238,4.0,10.0,80,0.00,,---,0.00,172.00,VWS V14.01,2013-01-16 18:24:00,
2013-01-16 13:29:00,33.8,28.6,29.89,WSW,254,5.0,10.0,81,0.00,,---,0.00,167.00,VWS V14.01,2013-01-16 18:29:00,
2013-01-16 13:30:00,34.5,29.6,29.91,WSW,244,5.0,11.0,82,0.00,,---,0.00,181.00,VWS V14.01,2013-01-16 18:30:00,
2013-01-16 13:34:00,33.8,28.6,29.90,SW,236,6.0,9.0,81,0.00,,---,0.00,176.00,VWS V14.01,2013-01-16 18:34:00,
2013-01-16 13:39:00,33.9,28.7,29.89,WSW,240,3.0,9.0,81,0.00,,---,0.00,167.00,VWS V14.01,2013-01-16 18:39:00,
2013-01-16 13:44:00,34.0,29.1,29.89,SW,232,6.0,11.0,82,0.00,,---,0.00,151.00,VWS V14.01,2013-01-16 18:44:00,
2013-01-16 13:49:00,34.0,28.8,29.89,West,261,6.0,11.0,81,0.00,,---,0.00,165.00,VWS V14.01,2013-01-16 18:49:00,
2013-01-16 13:54:00,34.1,28.9,29.90,WSW,238,5.0,11.0,81,0.00,,---,0.00,160.00,VWS V14.01,2013-01-16 18:54:00,
2013-01-16 14:00:00,34.1,28.9,29.89,WSW,238,5.0,11.0,81,0.00,,---,0.00,183.00,VWS V14.01,2013-01-16 19:00:00,
2013-01-16 14:05:00,34.1,28.9,29.90,SW,236,6.0,9.0,81,0.00,,---,0.00,178.00,VWS V14.01,2013-01-16 19:05:00,
2013-01-16 14:10:00,34.2,29.0,29.90,WSW,248,8.0,11.0,81,0.00,,---,0.00,174.00,VWS V14.01,2013-01-16 19:10:00,
2013-01-16 14:15:00,34.2,29.0,29.90,WSW,240,5.0,11.0,81,0.00,,---,0.00,192.00,VWS V14.01,2013-01-16 19:15:00,
2013-01-16 14:20:00,34.3,29.1,29.90,SW,233,4.0,11.0,81,0.00,,---,0.00,204.00,VWS V14.01,2013-01-16 19:20:00,
2013-01-16 14:25:00,34.4,29.5,29.91,WSW,245,7.0,11.0,82,0.00,,---,0.00,178.00,VWS V14.01,2013-01-16 19:25:00,
2013-01-16 14:30:00,34.5,29.6,29.91,WSW,246,7.0,11.0,82,0.00,,---,0.00,179.00,VWS V14.01,2013-01-16 19:30:00,
2013-01-16 14:35:00,34.6,29.4,29.92,West,265,9.0,11.0,81,0.00,,---,0.00,185.00,VWS V14.01,2013-01-16 19:35:00,
2013-01-16 14:40:00,34.6,29.1,29.91,SW,236,5.0,11.0,80,0.00,,---,0.00,179.00,VWS V14.01,2013-01-16 19:40:00,
2013-01-16 14:45:00,34.7,29.2,29.91,WSW,244,7.0,11.0,80,0.00,,---,0.00,174.00,VWS V14.01,2013-01-16 19:45:00,
2013-01-16 14:50:00,34.7,29.5,29.91,SW,221,7.0,11.0,81,0.00,,---,0.00,169.00,VWS V14.01,2013-01-16 19:50:00,
2013-01-16 14:55:00,34.8,29.3,29.92,WSW,238,6.0,11.0,80,0.00,,---,0.00,160.00,VWS V14.01,2013-01-16 19:55:00,
2013-01-16 15:00:00,34.8,29.3,29.93,SW,223,6.0,14.0,80,0.00,,---,0.00,149.00,VWS V14.01,2013-01-16 20:00:00,
2013-01-16 15:05:00,34.8,29.3,29.93,SW,219,6.0,9.0,80,0.00,,---,0.00,144.00,VWS V14.01,2013-01-16 20:05:00,
2013-01-16 15:10:00,34.8,29.3,29.92,SW,224,6.0,10.0,80,0.00,,---,0.00,137.00,VWS V14.01,2013-01-16 20:10:00,
2013-01-16 15:15:00,34.8,29.3,29.92,SW,223,8.0,11.0,80,0.00,,---,0.00,127.00,VWS V14.01,2013-01-16 20:15:00,
2013-01-16 15:20:00,34.8,29.3,29.92,SW,217,6.0,11.0,80,0.00,,---,0.00,120.00,VWS V14.01,2013-01-16 20:20:00,
2013-01-16 15:25:00,34.7,29.2,29.92,SW,227,7.0,11.0,80,0.00,,---,0.00,114.00,VWS V14.01,2013-01-16 20:25:00,
2013-01-16 15:30:00,34.6,28.8,29.93,SW,228,6.0,11.0,79,0.00,,---,0.00,111.00,VWS V14.01,2013-01-16 20:30:00,
2013-01-16 15:35:00,34.5,29.0,29.93,SW,232,7.0,9.0,80,0.00,,---,0.00,105.00,VWS V14.01,2013-01-16 20:35:00,
2013-01-16 15:40:00,34.4,28.9,29.93,SSW,199,6.0,11.0,80,0.00,,---,0.00,105.00,VWS V14.01,2013-01-16 20:40:00,
2013-01-16 15:45:00,34.4,28.9,29.93,SW,231,7.0,11.0,80,0.00,,---,0.00,97.00,VWS V14.01,2013-01-16 20:45:00,
2013-01-16 15:50:00,34.3,28.8,29.93,SSW,204,5.0,13.0,80,0.00,,---,0.00,88.00,VWS V14.01,2013-01-16 20:50:00,
2013-01-16 15:55:00,34.3,28.8,29.93,SW,221,6.0,13.0,80,0.00,,---,0.00,77.00,VWS V14.01,2013-01-16 20:55:00,
2013-01-16 16:00:00,34.2,28.7,29.93,SSW,212,8.0,13.0,80,0.00,,---,0.00,76.00,VWS V14.01,2013-01-16 21:00:00,
2013-01-16 16:05:00,34.1,28.6,29.93,SW,224,5.0,12.0,80,0.00,,---,0.00,63.00,VWS V14.01,2013-01-16 21:05:00,
2013-01-16 16:10:00,34.1,28.9,29.94,SW,223,12.0,12.0,81,0.00,,---,0.00,60.00,VWS V14.01,2013-01-16 21:10:00,
2013-01-16 16:15:00,34.0,28.8,29.93,WSW,245,11.0,12.0,81,0.00,,---,0.00,54.00,VWS V14.01,2013-01-16 21:15:00,
2013-01-16 16:20:00,33.9,28.4,29.94,WSW,242,7.0,13.0,80,0.00,,---,0.00,53.00,VWS V14.01,2013-01-16 21:20:00,
2013-01-16 16:25:00,33.9,28.4,29.94,SSW,207,6.0,13.0,80,0.00,,---,0.00,49.00,VWS V14.01,2013-01-16 21:25:00,
2013-01-16 16:30:00,33.8,28.6,29.94,SW,225,5.0,13.0,81,0.00,,---,0.00,42.00,VWS V14.01,2013-01-16 21:30:00,
2013-01-16 16:35:00,33.8,28.3,29.94,SW,219,10.0,11.0,80,0.00,,---,0.00,37.00,VWS V14.01,2013-01-16 21:35:00,
2013-01-16 16:40:00,33.8,28.6,29.94,SW,219,7.0,11.0,81,0.00,,---,0.00,33.00,VWS V14.01,2013-01-16 21:40:00,
2013-01-16 16:45:00,33.8,28.9,29.95,SW,228,4.0,11.0,82,0.00,,---,0.00,32.00,VWS V14.01,2013-01-16 21:45:00,
2013-01-16 16:50:00,33.7,28.8,29.95,SSW,209,10.0,11.0,82,0.00,,---,0.00,25.00,VWS V14.01,2013-01-16 21:50:00,
2013-01-16 16:55:00,33.7,28.8,29.95,SW,214,10.0,13.0,82,0.00,,---,0.00,21.00,VWS V14.01,2013-01-16 21:55:00,
2013-01-16 17:00:00,33.6,29.0,29.95,SW,215,12.0,13.0,83,0.00,,---,0.00,16.00,VWS V14.01,2013-01-16 22:00:00,
2013-01-16 17:05:00,33.5,28.9,29.95,SW,220,7.0,13.0,83,0.00,,---,0.00,14.00,VWS V14.01,2013-01-16 22:05:00,
2013-01-16 17:10:00,33.5,28.9,29.95,SW,216,7.0,13.0,83,0.00,,---,0.00,11.00,VWS V14.01,2013-01-16 22:10:00,
2013-01-16 17:15:00,33.4,28.8,29.95,SW,227,6.0,13.0,83,0.00,,---,0.00,7.00,VWS V14.01,2013-01-16 22:15:00,
2013-01-16 17:20:00,33.3,28.7,29.96,SW,227,6.0,13.0,83,0.00,,---,0.00,5.00,VWS V14.01,2013-01-16 22:20:00,
2013-01-16 17:25:00,33.3,28.7,29.95,SW,227,5.0,13.0,83,0.00,,---,0.00,0.00,VWS V14.01,2013-01-16 22:25:00,
2013-01-16 17:30:00,33.3,29.0,29.95,SW,234,6.0,13.0,84,0.00,,---,0.00,0.00,VWS V14.01,2013-01-16 22:30:00,
2013-01-16 17:35:00,33.2,28.9,29.95,SW,219,7.0,13.0,84,0.00,,---,0.00,0.00,VWS V14.01,2013-01-16 22:35:00,
2013-01-16 17:40:00,33.2,28.9,29.95,SW,226,7.0,13.0,84,0.00,,---,0.00,0.00,VWS V14.01,2013-01-16 22:40:00,
2013-01-16 17:45:00,33.1,29.1,29.96,SSW,213,11.0,13.0,85,0.00,,---,0.00,0.00,VWS V14.01,2013-01-16 22:45:00,
2013-01-16 17:50:00,33.1,29.1,29.96,SW,233,6.0,13.0,85,0.00,,---,0.00,0.00,VWS V14.01,2013-01-16 22:50:00,
2013-01-16 17:55:00,33.0,29.3,29.97,SW,223,7.0,13.0,86,0.00,,---,0.00,0.00,VWS V14.01,2013-01-16 22:55:00,
2013-01-16 18:00:00,33.0,29.3,29.97,SW,227,7.0,7.0,86,0.00,,---,0.00,0.00,VWS V14.01,2013-01-16 23:00:00,
2013-01-16 18:05:00,32.9,29.2,29.97,SW,225,9.0,12.0,86,0.00,,---,0.00,0.00,VWS V14.01,2013-01-16 23:05:00,
2013-01-16 18:10:00,32.9,29.5,29.96,SW,221,11.0,13.0,87,0.00,,---,0.00,0.00,VWS V14.01,2013-01-16 23:10:00,
2013-01-16 18:15:00,32.8,29.4,29.96,SW,224,6.0,13.0,87,0.00,,---,0.00,0.00,VWS V14.01,2013-01-16 23:15:00,
2013-01-16 18:20:00,32.7,29.3,29.96,SSW,199,5.0,15.0,87,0.00,,---,0.00,0.00,VWS V14.01,2013-01-16 23:20:00,
2013-01-16 18:25:00,32.6,29.5,29.96,SW,231,11.0,15.0,88,0.00,,---,0.00,0.00,VWS V14.01,2013-01-16 23:25:00,
2013-01-16 18:30:00,32.6,29.5,29.96,SW,214,11.0,15.0,88,0.00,,---,0.00,0.00,VWS V14.01,2013-01-16 23:30:00,
2013-01-16 18:35:00,32.5,29.4,29.97,SW,229,5.0,15.0,88,0.00,,---,0.00,0.00,VWS V14.01,2013-01-16 23:35:00,
2013-01-16 18:40:00,32.4,29.2,29.97,SSW,198,6.0,15.0,88,0.00,,---,0.00,0.00,VWS V14.01,2013-01-16 23:40:00,
2013-01-16 18:45:00,32.4,29.2,29.98,SW,227,6.0,15.0,88,0.00,,---,0.00,0.00,VWS V14.01,2013-01-16 23:45:00,
2013-01-16 18:50:00,32.3,29.4,29.97,SW,214,3.0,15.0,89,0.00,,---,0.00,0.00,VWS V14.01,2013-01-16 23:50:00,
2013-01-16 18:55:00,32.3,29.4,29.98,WSW,250,5.0,15.0,89,0.00,,---,0.00,0.00,VWS V14.01,2013-01-16 23:55:00,
2013-01-16 19:00:00,32.2,29.3,29.98,SW,221,6.0,7.0,89,0.00,,---,0.00,0.00,VWS V14.01,2013-01-17 00:00:00,
2013-01-16 19:05:00,32.2,29.3,29.98,SW,233,9.0,12.0,89,0.00,,---,0.00,0.00,VWS V14.01,2013-01-17 00:05:00,
2013-01-16 19:10:00,32.2,29.3,29.98,SSW,202,11.0,12.0,89,0.00,,---,0.00,0.00,VWS V14.01,2013-01-17 00:10:00,
2013-01-16 19:15:00,32.2,29.3,29.99,SW,231,9.0,12.0,89,0.00,,---,0.00,0.00,VWS V14.01,2013-01-17 00:15:00,
2013-01-16 19:20:00,32.2,29.3,29.99,WSW,242,9.0,12.0,89,0.00,,---,0.00,0.00,VWS V14.01,2013-01-17 00:20:00,
2013-01-16 19:25:00,32.1,29.2,29.99,SW,219,6.0,12.0,89,0.00,,---,0.00,0.00,VWS V14.01,2013-01-17 00:25:00,
2013-01-16 19:30:00,32.1,29.2,29.99,SW,228,6.0,6.0,89,0.00,,---,0.00,0.00,VWS V14.01,2013-01-17 00:30:00,
2013-01-16 19:35:00,32.1,29.2,29.99,SW,221,6.0,12.0,89,0.00,,---,0.00,0.00,VWS V14.01,2013-01-17 00:35:00,
2013-01-16 19:40:00,32.1,29.2,29.99,SW,232,5.0,12.0,89,0.00,,---,0.00,0.00,VWS V14.01,2013-01-17 00:40:00,
2013-01-16 19:45:00,32.1,29.2,30.00,SSW,209,3.0,12.0,89,0.00,,---,0.00,0.00,VWS V14.01,2013-01-17 00:45:00,
2013-01-16 19:50:00,32.1,29.5,30.00,SW,217,7.0,12.0,90,0.00,,---,0.00,0.00,VWS V14.01,2013-01-17 00:50:00,
2013-01-16 19:56:00,32.1,29.5,29.99,SW,218,10.0,12.0,90,0.00,,---,0.00,0.00,VWS V14.01,2013-01-17 00:56:00,
2013-01-16 20:00:00,31.7,29.1,30.00,SW,232,5.0,13.0,90,0.00,,---,0.00,0.00,VWS V14.01,2013-01-17 01:00:00,
2013-01-16 20:01:00,32.1,29.5,30.00,SW,227,8.0,8.0,90,0.00,,---,0.00,0.00,VWS V14.01,2013-01-17 01:01:00,
2013-01-16 20:06:00,32.0,29.4,29.99,SSW,199,7.0,11.0,90,0.00,,---,0.00,0.00,VWS V14.01,2013-01-17 01:06:00,
2013-01-16 20:11:00,32.0,29.4,29.99,SW,221,8.0,12.0,90,0.00,,---,0.00,0.00,VWS V14.01,2013-01-17 01:11:00,
2013-01-16 20:16:00,32.0,29.4,29.99,SW,230,6.0,12.0,90,0.00,,---,0.00,0.00,VWS V14.01,2013-01-17 01:16:00,
2013-01-16 20:21:00,31.9,29.3,30.00,SW,232,8.0,12.0,90,0.00,,---,0.00,0.00,VWS V14.01,2013-01-17 01:21:00,
2013-01-16 20:26:00,31.9,29.3,30.00,SW,228,9.0,12.0,90,0.00,,---,0.00,0.00,VWS V14.01,2013-01-17 01:26:00,
2013-01-16 20:30:00,31.5,28.9,30.00,WSW,237,4.0,13.0,90,0.00,,---,0.00,0.00,VWS V14.01,2013-01-17 01:30:00,
2013-01-16 20:31:00,31.8,29.2,30.00,SW,214,6.0,6.0,90,0.00,,---,0.00,0.00,VWS V14.01,2013-01-17 01:31:00,
2013-01-16 20:36:00,31.8,29.2,30.00,SSW,207,6.0,10.0,90,0.00,,---,0.00,0.00,VWS V14.01,2013-01-17 01:36:00,
2013-01-16 20:41:00,31.8,29.2,30.00,SSW,213,8.0,13.0,90,0.00,,---,0.00,0.00,VWS V14.01,2013-01-17 01:41:00,
2013-01-16 20:46:00,31.8,29.2,30.00,SW,218,9.0,13.0,90,0.00,,---,0.00,0.00,VWS V14.01,2013-01-17 01:46:00,
2013-01-16 20:51:00,31.7,29.1,30.00,SW,230,5.0,13.0,90,0.00,,---,0.00,0.00,VWS V14.01,2013-01-17 01:51:00,
2013-01-16 20:56:00,31.7,29.1,30.00,SSW,198,8.0,13.0,90,0.00,,---,0.00,0.00,VWS V14.01,2013-01-17 01:56:00,
2013-01-16 21:00:00,31.5,28.9,30.00,SW,232,3.0,12.0,90,0.00,,---,0.00,0.00,VWS V14.01,2013-01-17 02:00:00,
2013-01-16 21:01:00,31.7,29.1,30.00,SW,229,5.0,6.0,90,0.00,,---,0.00,0.00,VWS V14.01,2013-01-17 02:01:00,
2013-01-16 21:06:00,31.6,29.0,30.00,South,186,5.0,13.0,90,0.00,,---,0.00,0.00,VWS V14.01,2013-01-17 02:06:00,
2013-01-16 21:11:00,31.6,29.0,30.00,SW,235,5.0,13.0,90,0.00,,---,0.00,0.00,VWS V14.01,2013-01-17 02:11:00,
2013-01-16 21:16:00,31.5,28.9,30.00,SW,221,4.0,13.0,90,0.00,,---,0.00,0.00,VWS V14.01,2013-01-17 02:16:00,
2013-01-16 21:21:00,31.5,28.9,30.00,SW,224,7.0,13.0,90,0.00,,---,0.00,0.00,VWS V14.01,2013-01-17 02:21:00,
2013-01-16 21:26:00,31.5,28.9,30.00,SW,216,4.0,13.0,90,0.00,,---,0.00,0.00,VWS V14.01,2013-01-17 02:26:00,
2013-01-16 21:30:00,31.5,28.6,30.00,SW,235,5.0,11.0,89,0.00,,---,0.00,0.00,VWS V14.01,2013-01-17 02:30:00,
2013-01-16 21:31:00,31.5,28.9,30.00,SSW,211,5.0,8.0,90,0.00,,---,0.00,0.00,VWS V14.01,2013-01-17 02:31:00,
2013-01-16 21:36:00,31.5,28.9,30.00,SW,221,3.0,10.0,90,0.00,,---,0.00,0.00,VWS V14.01,2013-01-17 02:36:00,
2013-01-16 21:41:00,31.5,28.9,30.00,SSW,205,10.0,12.0,90,0.00,,---,0.00,0.00,VWS V14.01,2013-01-17 02:41:00,
2013-01-16 21:46:00,31.5,28.9,30.00,SW,226,10.0,12.0,90,0.00,,---,0.00,0.00,VWS V14.01,2013-01-17 02:46:00,
2013-01-16 21:51:00,31.5,28.9,29.99,SW,225,3.0,12.0,90,0.00,,---,0.00,0.00,VWS V14.01,2013-01-17 02:51:00,
2013-01-16 21:56:00,31.5,28.9,29.99,SW,220,3.0,12.0,90,0.00,,---,0.00,0.00,VWS V14.01,2013-01-17 02:56:00,
2013-01-16 22:00:00,31.5,28.4,30.00,WSW,241,9.0,11.0,88,0.00,,---,0.00,0.00,VWS V14.01,2013-01-17 03:00:00,
2013-01-16 22:01:00,31.5,28.9,29.99,SW,217,7.0,7.0,90,0.00,,---,0.00,0.00,VWS V14.01,2013-01-17 03:01:00,
2013-01-16 22:06:00,31.4,28.8,30.00,SW,219,2.0,11.0,90,0.00,,---,0.00,0.00,VWS V14.01,2013-01-17 03:06:00,
2013-01-16 22:11:00,31.4,28.8,30.00,SW,219,5.0,11.0,90,0.00,,---,0.00,0.00,VWS V14.01,2013-01-17 03:11:00,
2013-01-16 22:16:00,31.4,28.8,30.00,SSW,210,6.0,11.0,90,0.00,,---,0.00,0.00,VWS V14.01,2013-01-17 03:16:00,
2013-01-16 22:21:00,31.4,28.8,30.00,WSW,237,9.0,11.0,90,0.00,,---,0.00,0.00,VWS V14.01,2013-01-17 03:21:00,
2013-01-16 22:26:00,31.4,28.5,30.00,SW,234,6.0,11.0,89,0.00,,---,0.00,0.00,VWS V14.01,2013-01-17 03:26:00,
2013-01-16 22:30:00,31.5,28.4,30.01,WSW,254,6.0,13.0,88,0.00,,---,0.00,0.00,VWS V14.01,2013-01-17 03:30:00,
2013-01-16 22:31:00,31.5,28.6,30.00,SW,232,3.0,5.0,89,0.00,,---,0.00,0.00,VWS V14.01,2013-01-17 03:31:00,
2013-01-16 22:36:00,31.5,28.6,30.00,WSW,240,4.0,10.0,89,0.00,,---,0.00,0.00,VWS V14.01,2013-01-17 03:36:00,
2013-01-16 22:41:00,31.5,28.6,30.00,WSW,240,5.0,10.0,89,0.00,,---,0.00,0.00,VWS V14.01,2013-01-17 03:41:00,
2013-01-16 22:46:00,31.5,28.4,30.00,SW,231,3.0,10.0,88,0.00,,---,0.00,0.00,VWS V14.01,2013-01-17 03:46:00,
2013-01-16 22:51:00,31.4,28.3,30.00,SW,236,6.0,10.0,88,0.00,,---,0.00,0.00,VWS V14.01,2013-01-17 03:51:00,
2013-01-16 22:56:00,31.5,28.4,30.00,SW,230,8.0,10.0,88,0.00,,---,0.00,0.00,VWS V14.01,2013-01-17 03:56:00,
2013-01-16 23:00:00,31.6,27.9,30.03,SW,232,10.0,13.0,86,0.00,,---,0.00,0.00,VWS V14.01,2013-01-17 04:00:00,
2013-01-16 23:01:00,31.5,28.4,30.00,WSW,248,6.0,11.0,88,0.00,,---,0.00,0.00,VWS V14.01,2013-01-17 04:01:00,
2013-01-16 23:06:00,31.5,28.4,30.01,WSW,255,6.0,13.0,88,0.00,,---,0.00,0.00,VWS V14.01,2013-01-17 04:06:00,
2013-01-16 23:11:00,31.5,28.4,30.00,WSW,257,5.0,13.0,88,0.00,,---,0.00,0.00,VWS V14.01,2013-01-17 04:11:00,
2013-01-16 23:16:00,31.5,28.4,30.01,SW,233,10.0,13.0,88,0.00,,---,0.00,0.00,VWS V14.01,2013-01-17 04:16:00,
2013-01-16 23:21:00,31.5,28.4,30.00,WSW,237,4.0,13.0,88,0.00,,---,0.00,0.00,VWS V14.01,2013-01-17 04:21:00,
2013-01-16 23:26:00,31.4,28.3,30.01,SW,232,5.0,13.0,88,0.00,,---,0.00,0.00,VWS V14.01,2013-01-17 04:26:00,
2013-01-16 23:30:00,31.6,27.9,30.03,WSW,244,5.0,11.0,86,0.00,,---,0.00,0.00,VWS V14.01,2013-01-17 04:30:00,
2013-01-16 23:31:00,31.5,28.4,30.01,West,260,6.0,9.0,88,0.00,,---,0.00,0.00,VWS V14.01,2013-01-17 04:31:00,
2013-01-16 23:36:00,31.5,28.1,30.02,WSW,242,9.0,13.0,87,0.00,,---,0.00,0.00,VWS V14.01,2013-01-17 04:36:00,
2013-01-16 23:41:00,31.5,28.1,30.02,WSW,255,10.0,13.0,87,0.00,,---,0.00,0.00,VWS V14.01,2013-01-17 04:41:00,
2013-01-16 23:46:00,31.5,28.1,30.03,WSW,237,4.0,13.0,87,0.00,,---,0.00,0.00,VWS V14.01,2013-01-17 04:46:00,
2013-01-16 23:51:00,31.6,28.2,30.02,SW,218,5.0,13.0,87,0.00,,---,0.00,0.00,VWS V14.01,2013-01-17 04:51:00,
2013-01-16 23:57:00,31.6,27.9,30.03,SW,236,5.0,13.0,86,0.00,,---,0.00,0.00,VWS V14.01,2013-01-17 04:57:00,